[TLELIST] Archives

 

[list_settings.list_name] Current TLEs

December 17th 2009 PST

HST 1 20580U 90037B 09349.25596042 .00000306 00000-0 10613-4 0 4890 2 20580 028.4714 000.4989 0003431 049.9171 310.1675 15.00865527877087 ISS (ZARYA) 1 25544U 98067A 09350.37732443 .00017624 00000-0 11172-3 0 1829 2 25544 051.6441 090.4027 0007981 086.5069 346.0095 15.76607247634661 CXO 1 25867U 99040B 09348.95833333 -.00000118 00000-0 10000-3 0 4047 2 25867 066.2508 062.1747 7860873 275.2077 359.0989 00.37807542 5692 ____________________________________________________________________ These 2-Line ...Continue Reading

[list_settings.list_name] Current TLEs

December 16th 2009 PST

HST 1 20580U 90037B 09349.25596042 .00000306 00000-0 10613-4 0 4890 2 20580 028.4714 000.4989 0003431 049.9171 310.1675 15.00865527877087 ISS (ZARYA) 1 25544U 98067A 09349.36409446 .00012761 00000-0 82252-4 0 1768 2 25544 051.6440 095.6229 0007872 084.6421 353.1623 15.76556919634509 CXO 1 25867U 99040B 09348.95833333 -.00000118 00000-0 10000-3 0 4047 2 25867 066.2508 062.1747 7860873 275.2077 359.0989 00.37807542 5692 ____________________________________________________________________ These 2-Line ...Continue Reading

[list_settings.list_name] Current TLEs

December 15th 2009 PST

HST 1 20580U 90037B 09347.12804199 .00000369 00000-0 15511-4 0 4889 2 20580 028.4712 014.3906 0003246 025.8244 334.2584 15.00865374876766 ISS (ZARYA) 1 25544U 98067A 09348.41226332 .00011106 00000-0 72227-4 0 1699 2 25544 051.6439 100.5298 0007857 080.6252 351.3338 15.76524211634356 CXO 1 25867U 99040B 09348.95833333 -.00000118 00000-0 10000-3 0 4047 2 25867 066.2508 062.1747 7860873 275.2077 359.0989 00.37807542 5692 ____________________________________________________________________ These 2-Line ...Continue Reading

[list_settings.list_name] Current TLEs

December 14th 2009 PST

HST 1 20580U 90037B 09347.12804199 .00000369 00000-0 15511-4 0 4889 2 20580 028.4712 014.3906 0003246 025.8244 334.2584 15.00865374876766 ISS (ZARYA) 1 25544U 98067A 09347.46449729 .00010325 00000-0 67521-4 0 1637 2 25544 051.6435 105.4152 0007876 077.2824 012.0350 15.76498312634204 CXO 1 25867U 99040B 09346.29166667 .00000005 00000-0 10000-3 0 4034 2 25867 066.2396 062.2751 7853176 275.2112 356.0892 00.37807222 5685 ____________________________________________________________________ These 2-Line ...Continue Reading

[list_settings.list_name] Current TLEs

December 13th 2009 PST

HST 1 20580U 90037B 09343.60367032 .00000302 00000-0 10356-4 0 4876 2 20580 028.4710 037.3903 0003225 346.8092 013.2428 15.00863663876232 ISS (ZARYA) 1 25544U 98067A 09345.94527975 .00011370 00000-0 74031-4 0 1565 2 25544 051.6439 113.2434 0007777 071.5937 029.8382 15.76468271633964 CXO 1 25867U 99040B 09346.29166667 .00000005 00000-0 10000-3 0 4034 2 25867 066.2396 062.2751 7853176 275.2112 356.0892 00.37807222 5685 ____________________________________________________________________ These 2-Line ...Continue Reading

[list_settings.list_name] Current TLEs

December 12th 2009 PST

HST 1 20580U 90037B 09343.60367032 .00000302 00000-0 10356-4 0 4876 2 20580 028.4710 037.3903 0003225 346.8092 013.2428 15.00863663876232 ISS (ZARYA) 1 25544U 98067A 09345.37330069 .00010373 00000-0 67946-4 0 1512 2 25544 051.6442 116.1937 0007984 069.4054 023.7048 15.76453087633875 CXO 1 25867U 99040B 09343.66666667 .00000206 00000-0 10000-3 0 4029 2 25867 066.2231 062.3462 7846169 275.2384 358.7046 00.37805998 5675 ____________________________________________________________________ These 2-Line ...Continue Reading

[list_settings.list_name] Current TLEs

December 11th 2009 PST

HST 1 20580U 90037B 09343.60367032 .00000302 00000-0 10356-4 0 4876 2 20580 028.4710 037.3903 0003225 346.8092 013.2428 15.00863663876232 ISS (ZARYA) 1 25544U 98067A 09344.41335486 .00010210 00000-0 67005-4 0 1475 2 25544 051.6443 121.1417 0008001 065.2147 336.3386 15.76432106633724 CXO 1 25867U 99040B 09343.66666667 .00000206 00000-0 10000-3 0 4029 2 25867 066.2231 062.3462 7846169 275.2384 358.7046 00.37805998 5675 ____________________________________________________________________ These 2-Line ...Continue Reading

[list_settings.list_name] Current TLEs

December 10th 2009 PST

HST 1 20580U 90037B 09342.60620715 .00000285 00000-0 90102-5 0 4862 2 20580 028.4709 043.8992 0003244 335.8347 024.2148 15.00863225876080 ISS (ZARYA) 1 25544U 98067A 09343.39854891 .00016599 00000-0 10634-3 0 1401 2 25544 051.6458 126.3715 0007981 060.9263 337.6056 15.76419387633561 CXO 1 25867U 99040B 09343.66666667 .00000206 00000-0 10000-3 0 4029 2 25867 066.2231 062.3462 7846169 275.2384 358.7046 00.37805998 5675 ____________________________________________________________________ These 2-Line ...Continue Reading

[list_settings.list_name] Current TLEs

December 9th 2009 PST

HST 1 20580U 90037B 09341.20975506 .00000255 00000-0 67157-5 0 4858 2 20580 028.4700 053.0175 0003254 317.9646 042.0597 15.00862537875878 ISS (ZARYA) 1 25544U 98067A 09342.39341047 .00009722 00000-0 64201-4 0 1336 2 25544 051.6460 131.5454 0007866 059.2585 031.1848 15.76361765633406 CXO 1 25867U 99040B 09341.04166667 .00000288 00000-0 10000-3 0 4013 2 25867 066.2084 062.4723 7842093 275.2422 001.2882 00.37808531 5660 ____________________________________________________________________ These 2-Line ...Continue Reading

[list_settings.list_name] Current TLEs

December 8th 2009 PST

HST 1 20580U 90037B 09341.20975506 .00000255 00000-0 67157-5 0 4858 2 20580 028.4700 053.0175 0003254 317.9646 042.0597 15.00862537875878 ISS (ZARYA) 1 25544U 98067A 09341.31187706 .00008216 00000-0 54971-4 0 1269 2 25544 051.6444 137.1194 0007726 059.0990 009.6319 15.76332740633239 CXO 1 25867U 99040B 09341.04166667 .00000288 00000-0 10000-3 0 4013 2 25867 066.2084 062.4723 7842093 275.2422 001.2882 00.37808531 5660 ____________________________________________________________________ These 2-Line ...Continue Reading
  • This mailing list is a public mailing list - anyone may join or leave, at any time.
  • This mailing list is announce-only.

International Space Station (ISS) / Hubble Space Telescope (HST) / Chandra X-Ray Observatory Orbital Data via EMAIL

Privacy Policy:

Private list